owner,sensor,date,latitude,longitude,air_temperature,qcFlag 
COMPS,ioos:station:USF.COMPS:SHP:1,2019-06-01T00:54:00,30.0600,-84.2910,27.73,11111222 
COMPS,ioos:station:USF.COMPS:SHP:1,2019-06-01T01:54:00,30.0600,-84.2910,27.8,11111222 
COMPS,ioos:station:USF.COMPS:SHP:1,2019-06-01T02:54:00,30.0600,-84.2910,27.62,11111222 
COMPS,ioos:station:USF.COMPS:SHP:1,2019-06-01T03:54:00,30.0600,-84.2910,27.36,11111222 
COMPS,ioos:station:USF.COMPS:SHP:1,2019-06-01T04:54:00,30.0600,-84.2910,27.45,11111222 
COMPS,ioos:station:USF.COMPS:SHP:1,2019-06-01T05:54:00,30.0600,-84.2910,27.04,11111222 
COMPS,ioos:station:USF.COMPS:SHP:1,2019-06-01T06:54:00,30.0600,-84.2910,26.51,11111222 
COMPS,ioos:station:USF.COMPS:SHP:1,2019-06-01T07:54:00,30.0600,-84.2910,26.06,11111222 
COMPS,ioos:station:USF.COMPS:SHP:1,2019-06-01T08:54:00,30.0600,-84.2910,26.07,11111222 
COMPS,ioos:station:USF.COMPS:SHP:1,2019-06-01T09:54:00,30.0600,-84.2910,26.1,11111222 
COMPS,ioos:station:USF.COMPS:SHP:1,2019-06-01T10:54:00,30.0600,-84.2910,25.5,11111222 
COMPS,ioos:station:USF.COMPS:SHP:1,2019-06-01T11:54:00,30.0600,-84.2910,25.62,11111222 
COMPS,ioos:station:USF.COMPS:SHP:1,2019-06-01T12:54:00,30.0600,-84.2910,27.08,11111222 
COMPS,ioos:station:USF.COMPS:SHP:1,2019-06-01T13:54:00,30.0600,-84.2910,28.02,11111222 
COMPS,ioos:station:USF.COMPS:SHP:1,2019-06-01T14:54:00,30.0600,-84.2910,29.51,11111222 
COMPS,ioos:station:USF.COMPS:SHP:1,2019-06-01T15:54:00,30.0600,-84.2910,29.49,11111222 
COMPS,ioos:station:USF.COMPS:SHP:1,2019-06-01T16:54:00,30.0600,-84.2910,30.46,11111222 
COMPS,ioos:station:USF.COMPS:SHP:1,2019-06-01T17:54:00,30.0600,-84.2910,30.88,11111222 
COMPS,ioos:station:USF.COMPS:SHP:1,2019-06-01T18:54:00,30.0600,-84.2910,28.32,11111222 
COMPS,ioos:station:USF.COMPS:SHP:1,2019-06-01T19:54:00,30.0600,-84.2910,28.11,11111222 
COMPS,ioos:station:USF.COMPS:SHP:1,2019-06-01T20:54:00,30.0600,-84.2910,28.43,11111222 
COMPS,ioos:station:USF.COMPS:SHP:1,2019-06-01T21:54:00,30.0600,-84.2910,27.26,11111222 
COMPS,ioos:station:USF.COMPS:SHP:1,2019-06-01T22:54:00,30.0600,-84.2910,27.51,11111222 
COMPS,ioos:station:USF.COMPS:SHP:1,2019-06-01T23:54:00,30.0600,-84.2910,27.28,11111222 
COMPS,ioos:station:USF.COMPS:SHP:1,2019-06-02T00:54:00,30.0600,-84.2910,26.6,11111222 
COMPS,ioos:station:USF.COMPS:SHP:1,2019-06-02T01:54:00,30.0600,-84.2910,25.81,11111222 
COMPS,ioos:station:USF.COMPS:SHP:1,2019-06-02T02:54:00,30.0600,-84.2910,25.78,11111222 
COMPS,ioos:station:USF.COMPS:SHP:1,2019-06-02T03:54:00,30.0600,-84.2910,25.43,11111222 
COMPS,ioos:station:USF.COMPS:SHP:1,2019-06-02T04:54:00,30.0600,-84.2910,25.5,11111222 
COMPS,ioos:station:USF.COMPS:SHP:1,2019-06-02T05:54:00,30.0600,-84.2910,26.01,11111222 
COMPS,ioos:station:USF.COMPS:SHP:1,2019-06-02T06:54:00,30.0600,-84.2910,25.98,11111222 
COMPS,ioos:station:USF.COMPS:SHP:1,2019-06-02T07:54:00,30.0600,-84.2910,25.89,11111222 
COMPS,ioos:station:USF.COMPS:SHP:1,2019-06-02T08:54:00,30.0600,-84.2910,25.23,11111222 
COMPS,ioos:station:USF.COMPS:SHP:1,2019-06-02T09:54:00,30.0600,-84.2910,25.13,11111222 
COMPS,ioos:station:USF.COMPS:SHP:1,2019-06-02T10:54:00,30.0600,-84.2910,25.52,11111222 
COMPS,ioos:station:USF.COMPS:SHP:1,2019-06-02T11:54:00,30.0600,-84.2910,25.43,11111222 
COMPS,ioos:station:USF.COMPS:SHP:1,2019-06-02T12:54:00,30.0600,-84.2910,26.76,11111222 
COMPS,ioos:station:USF.COMPS:SHP:1,2019-06-02T13:54:00,30.0600,-84.2910,28.41,11111222 
COMPS,ioos:station:USF.COMPS:SHP:1,2019-06-02T14:54:00,30.0600,-84.2910,29.72,11111222 
COMPS,ioos:station:USF.COMPS:SHP:1,2019-06-02T15:54:00,30.0600,-84.2910,31.2,11111222 
COMPS,ioos:station:USF.COMPS:SHP:1,2019-06-02T16:54:00,30.0600,-84.2910,30.62,11111222 
COMPS,ioos:station:USF.COMPS:SHP:1,2019-06-02T17:54:00,30.0600,-84.2910,30.12,11111222 
COMPS,ioos:station:USF.COMPS:SHP:1,2019-06-02T18:54:00,30.0600,-84.2910,30.73,11111222 
COMPS,ioos:station:USF.COMPS:SHP:1,2019-06-02T19:54:00,30.0600,-84.2910,30.06,11111222 
COMPS,ioos:station:USF.COMPS:SHP:1,2019-06-02T20:54:00,30.0600,-84.2910,29.66,11111222 
COMPS,ioos:station:USF.COMPS:SHP:1,2019-06-02T21:54:00,30.0600,-84.2910,29.44,11111222 
COMPS,ioos:station:USF.COMPS:SHP:1,2019-06-02T22:54:00,30.0600,-84.2910,29.86,11111222 
COMPS,ioos:station:USF.COMPS:SHP:1,2019-06-02T23:54:00,30.0600,-84.2910,29.71,11111222 
COMPS,ioos:station:USF.COMPS:SHP:1,2019-06-03T00:54:00,30.0600,-84.2910,28.9,11111222 
COMPS,ioos:station:USF.COMPS:SHP:1,2019-06-03T01:54:00,30.0600,-84.2910,28.43,11111222 
COMPS,ioos:station:USF.COMPS:SHP:1,2019-06-03T02:54:00,30.0600,-84.2910,27.88,11111222 
COMPS,ioos:station:USF.COMPS:SHP:1,2019-06-03T03:54:00,30.0600,-84.2910,27.06,11111222 
COMPS,ioos:station:USF.COMPS:SHP:1,2019-06-03T04:54:00,30.0600,-84.2910,26.76,11111222 
COMPS,ioos:station:USF.COMPS:SHP:1,2019-06-03T05:54:00,30.0600,-84.2910,26.35,11111222 
COMPS,ioos:station:USF.COMPS:SHP:1,2019-06-03T06:54:00,30.0600,-84.2910,25.8,11111222 
COMPS,ioos:station:USF.COMPS:SHP:1,2019-06-03T07:54:00,30.0600,-84.2910,26.06,11111222 
COMPS,ioos:station:USF.COMPS:SHP:1,2019-06-03T08:54:00,30.0600,-84.2910,25.33,11111222 
COMPS,ioos:station:USF.COMPS:SHP:1,2019-06-03T09:54:00,30.0600,-84.2910,25.07,11111222 
COMPS,ioos:station:USF.COMPS:SHP:1,2019-06-03T10:54:00,30.0600,-84.2910,23.82,11111222 
COMPS,ioos:station:USF.COMPS:SHP:1,2019-06-03T11:54:00,30.0600,-84.2910,24.6,11111222 
COMPS,ioos:station:USF.COMPS:SHP:1,2019-06-03T12:54:00,30.0600,-84.2910,26.22,11111222 
COMPS,ioos:station:USF.COMPS:SHP:1,2019-06-03T13:54:00,30.0600,-84.2910,29.37,11111222 
COMPS,ioos:station:USF.COMPS:SHP:1,2019-06-03T14:54:00,30.0600,-84.2910,31.22,11111222 
COMPS,ioos:station:USF.COMPS:SHP:1,2019-06-03T15:54:00,30.0600,-84.2910,30.1,11111222 
COMPS,ioos:station:USF.COMPS:SHP:1,2019-06-03T16:54:00,30.0600,-84.2910,30.92,11111222 
COMPS,ioos:station:USF.COMPS:SHP:1,2019-06-03T17:54:00,30.0600,-84.2910,30.64,11111222 
COMPS,ioos:station:USF.COMPS:SHP:1,2019-06-03T18:54:00,30.0600,-84.2910,30.51,11111222 
COMPS,ioos:station:USF.COMPS:SHP:1,2019-06-03T19:54:00,30.0600,-84.2910,31.56,11111222 
COMPS,ioos:station:USF.COMPS:SHP:1,2019-06-03T20:54:00,30.0600,-84.2910,30.72,11111222 
COMPS,ioos:station:USF.COMPS:SHP:1,2019-06-03T21:54:00,30.0600,-84.2910,31.14,11111222 
COMPS,ioos:station:USF.COMPS:SHP:1,2019-06-03T22:54:00,30.0600,-84.2910,30.72,11111222 
COMPS,ioos:station:USF.COMPS:SHP:1,2019-06-03T23:54:00,30.0600,-84.2910,30.73,11111222 
COMPS,ioos:station:USF.COMPS:SHP:1,2019-06-04T00:54:00,30.0600,-84.2910,30.2,11111222 
COMPS,ioos:station:USF.COMPS:SHP:1,2019-06-04T01:54:00,30.0600,-84.2910,29.18,11111222 
COMPS,ioos:station:USF.COMPS:SHP:1,2019-06-04T02:54:00,30.0600,-84.2910,28.69,11111222 
COMPS,ioos:station:USF.COMPS:SHP:1,2019-06-04T03:54:00,30.0600,-84.2910,27.89,11111222 
COMPS,ioos:station:USF.COMPS:SHP:1,2019-06-04T04:54:00,30.0600,-84.2910,27.61,11111222 
COMPS,ioos:station:USF.COMPS:SHP:1,2019-06-04T05:54:00,30.0600,-84.2910,27.35,11111222 
COMPS,ioos:station:USF.COMPS:SHP:1,2019-06-04T06:54:00,30.0600,-84.2910,27.08,11111222 
COMPS,ioos:station:USF.COMPS:SHP:1,2019-06-04T07:54:00,30.0600,-84.2910,26.85,11111222 
COMPS,ioos:station:USF.COMPS:SHP:1,2019-06-04T08:54:00,30.0600,-84.2910,26.4,11111222 
COMPS,ioos:station:USF.COMPS:SHP:1,2019-06-04T09:54:00,30.0600,-84.2910,26.01,11111222 
COMPS,ioos:station:USF.COMPS:SHP:1,2019-06-04T10:54:00,30.0600,-84.2910,25.84,11111222 
COMPS,ioos:station:USF.COMPS:SHP:1,2019-06-04T11:54:00,30.0600,-84.2910,25.72,11111222 
COMPS,ioos:station:USF.COMPS:SHP:1,2019-06-04T12:54:00,30.0600,-84.2910,27.12,11111222 
COMPS,ioos:station:USF.COMPS:SHP:1,2019-06-04T13:54:00,30.0600,-84.2910,29.63,11111222 
COMPS,ioos:station:USF.COMPS:SHP:1,2019-06-04T14:54:00,30.0600,-84.2910,30.56,11111222 
COMPS,ioos:station:USF.COMPS:SHP:1,2019-06-04T15:54:00,30.0600,-84.2910,29.84,11111222 
COMPS,ioos:station:USF.COMPS:SHP:1,2019-06-04T16:54:00,30.0600,-84.2910,30.02,11111222 
COMPS,ioos:station:USF.COMPS:SHP:1,2019-06-04T17:54:00,30.0600,-84.2910,30.24,11111222 
COMPS,ioos:station:USF.COMPS:SHP:1,2019-06-04T18:54:00,30.0600,-84.2910,30.7,11111222 
COMPS,ioos:station:USF.COMPS:SHP:1,2019-06-04T19:54:00,30.0600,-84.2910,29.95,11111222 
COMPS,ioos:station:USF.COMPS:SHP:1,2019-06-04T20:54:00,30.0600,-84.2910,30.49,11111222 
COMPS,ioos:station:USF.COMPS:SHP:1,2019-06-04T21:54:00,30.0600,-84.2910,30.31,11111222 
COMPS,ioos:station:USF.COMPS:SHP:1,2019-06-04T22:54:00,30.0600,-84.2910,30.37,11111222 
COMPS,ioos:station:USF.COMPS:SHP:1,2019-06-04T23:54:00,30.0600,-84.2910,29.73,11111222 
COMPS,ioos:station:USF.COMPS:SHP:1,2019-06-05T00:54:00,30.0600,-84.2910,29.3,11111222 
COMPS,ioos:station:USF.COMPS:SHP:1,2019-06-05T01:54:00,30.0600,-84.2910,29.41,11111222 
COMPS,ioos:station:USF.COMPS:SHP:1,2019-06-05T02:54:00,30.0600,-84.2910,28.94,11111222 
COMPS,ioos:station:USF.COMPS:SHP:1,2019-06-05T03:54:00,30.0600,-84.2910,28.93,11111222 
COMPS,ioos:station:USF.COMPS:SHP:1,2019-06-05T04:54:00,30.0600,-84.2910,27.85,11111222 
COMPS,ioos:station:USF.COMPS:SHP:1,2019-06-05T05:54:00,30.0600,-84.2910,27.88,11111222 
COMPS,ioos:station:USF.COMPS:SHP:1,2019-06-05T06:54:00,30.0600,-84.2910,27.8,11111222 
COMPS,ioos:station:USF.COMPS:SHP:1,2019-06-05T07:54:00,30.0600,-84.2910,27.32,11111222 
COMPS,ioos:station:USF.COMPS:SHP:1,2019-06-05T08:54:00,30.0600,-84.2910,26.76,11111222 
COMPS,ioos:station:USF.COMPS:SHP:1,2019-06-05T09:54:00,30.0600,-84.2910,25.86,11111222 
COMPS,ioos:station:USF.COMPS:SHP:1,2019-06-05T10:54:00,30.0600,-84.2910,25.66,11111222 
COMPS,ioos:station:USF.COMPS:SHP:1,2019-06-05T11:54:00,30.0600,-84.2910,26.72,11111222 
COMPS,ioos:station:USF.COMPS:SHP:1,2019-06-05T12:54:00,30.0600,-84.2910,28.11,11111222 
COMPS,ioos:station:USF.COMPS:SHP:1,2019-06-05T13:54:00,30.0600,-84.2910,28.84,11111222 
COMPS,ioos:station:USF.COMPS:SHP:1,2019-06-05T14:54:00,30.0600,-84.2910,29.46,11111222 
COMPS,ioos:station:USF.COMPS:SHP:1,2019-06-05T15:54:00,30.0600,-84.2910,30.05,11111222 
COMPS,ioos:station:USF.COMPS:SHP:1,2019-06-05T16:54:00,30.0600,-84.2910,29.72,11111222 
COMPS,ioos:station:USF.COMPS:SHP:1,2019-06-05T17:54:00,30.0600,-84.2910,29.37,11111222 
COMPS,ioos:station:USF.COMPS:SHP:1,2019-06-05T18:54:00,30.0600,-84.2910,29.9,11111222 
COMPS,ioos:station:USF.COMPS:SHP:1,2019-06-05T19:54:00,30.0600,-84.2910,29.92,11111222 
COMPS,ioos:station:USF.COMPS:SHP:1,2019-06-05T20:54:00,30.0600,-84.2910,30.11,11111222 
COMPS,ioos:station:USF.COMPS:SHP:1,2019-06-05T21:54:00,30.0600,-84.2910,29.7,11111222 
COMPS,ioos:station:USF.COMPS:SHP:1,2019-06-05T22:54:00,30.0600,-84.2910,29.41,11111222 
COMPS,ioos:station:USF.COMPS:SHP:1,2019-06-05T23:54:00,30.0600,-84.2910,29.04,11111222 
COMPS,ioos:station:USF.COMPS:SHP:1,2019-06-06T00:54:00,30.0600,-84.2910,28.71,11111222 
COMPS,ioos:station:USF.COMPS:SHP:1,2019-06-06T01:54:00,30.0600,-84.2910,28.55,11111222 
COMPS,ioos:station:USF.COMPS:SHP:1,2019-06-06T02:54:00,30.0600,-84.2910,28.5,11111222 
COMPS,ioos:station:USF.COMPS:SHP:1,2019-06-06T03:54:00,30.0600,-84.2910,28.15,11111222 
COMPS,ioos:station:USF.COMPS:SHP:1,2019-06-06T04:54:00,30.0600,-84.2910,27.67,11111222 
COMPS,ioos:station:USF.COMPS:SHP:1,2019-06-06T05:54:00,30.0600,-84.2910,28.02,11111222 
COMPS,ioos:station:USF.COMPS:SHP:1,2019-06-06T06:54:00,30.0600,-84.2910,27.9,11111222 
COMPS,ioos:station:USF.COMPS:SHP:1,2019-06-06T07:54:00,30.0600,-84.2910,27.92,11111222 
COMPS,ioos:station:USF.COMPS:SHP:1,2019-06-06T08:54:00,30.0600,-84.2910,28.15,11111222 
COMPS,ioos:station:USF.COMPS:SHP:1,2019-06-06T09:54:00,30.0600,-84.2910,26.55,11111222 
COMPS,ioos:station:USF.COMPS:SHP:1,2019-06-06T10:54:00,30.0600,-84.2910,25.73,11111222 
COMPS,ioos:station:USF.COMPS:SHP:1,2019-06-06T11:54:00,30.0600,-84.2910,26.91,11111222 
COMPS,ioos:station:USF.COMPS:SHP:1,2019-06-06T12:54:00,30.0600,-84.2910,27.76,11111222 
COMPS,ioos:station:USF.COMPS:SHP:1,2019-06-06T13:54:00,30.0600,-84.2910,25.36,11111222 
COMPS,ioos:station:USF.COMPS:SHP:1,2019-06-06T14:54:00,30.0600,-84.2910,25.99,11111222 
COMPS,ioos:station:USF.COMPS:SHP:1,2019-06-06T15:54:00,30.0600,-84.2910,27.1,11111222 
COMPS,ioos:station:USF.COMPS:SHP:1,2019-06-06T16:54:00,30.0600,-84.2910,25.97,11111222 
COMPS,ioos:station:USF.COMPS:SHP:1,2019-06-06T17:54:00,30.0600,-84.2910,26.06,11111222 
COMPS,ioos:station:USF.COMPS:SHP:1,2019-06-06T18:54:00,30.0600,-84.2910,26.34,11111222 
COMPS,ioos:station:USF.COMPS:SHP:1,2019-06-06T19:54:00,30.0600,-84.2910,26.81,11111222 
COMPS,ioos:station:USF.COMPS:SHP:1,2019-06-06T20:54:00,30.0600,-84.2910,26.95,11111222 
COMPS,ioos:station:USF.COMPS:SHP:1,2019-06-06T21:54:00,30.0600,-84.2910,27.22,11111222 
COMPS,ioos:station:USF.COMPS:SHP:1,2019-06-06T22:54:00,30.0600,-84.2910,26.88,11111222 
COMPS,ioos:station:USF.COMPS:SHP:1,2019-06-06T23:54:00,30.0600,-84.2910,26.75,11111222 
COMPS,ioos:station:USF.COMPS:SHP:1,2019-06-07T00:54:00,30.0600,-84.2910,27.19,11111222 
COMPS,ioos:station:USF.COMPS:SHP:1,2019-06-07T01:54:00,30.0600,-84.2910,27.82,11111222 
COMPS,ioos:station:USF.COMPS:SHP:1,2019-06-07T02:54:00,30.0600,-84.2910,27.91,11111222 
COMPS,ioos:station:USF.COMPS:SHP:1,2019-06-07T03:54:00,30.0600,-84.2910,28.12,11111222 
COMPS,ioos:station:USF.COMPS:SHP:1,2019-06-07T04:54:00,30.0600,-84.2910,28.1,11111222 
COMPS,ioos:station:USF.COMPS:SHP:1,2019-06-07T05:54:00,30.0600,-84.2910,28.44,11111222 
COMPS,ioos:station:USF.COMPS:SHP:1,2019-06-07T06:54:00,30.0600,-84.2910,28.18,11111222 
COMPS,ioos:station:USF.COMPS:SHP:1,2019-06-07T07:54:00,30.0600,-84.2910,28.49,11111222 
COMPS,ioos:station:USF.COMPS:SHP:1,2019-06-07T08:54:00,30.0600,-84.2910,28.43,11111222 
COMPS,ioos:station:USF.COMPS:SHP:1,2019-06-07T09:54:00,30.0600,-84.2910,27.02,11111222 
COMPS,ioos:station:USF.COMPS:SHP:1,2019-06-07T10:54:00,30.0600,-84.2910,26.76,11111222 
COMPS,ioos:station:USF.COMPS:SHP:1,2019-06-07T11:54:00,30.0600,-84.2910,28.08,11111222 
COMPS,ioos:station:USF.COMPS:SHP:1,2019-06-07T12:54:00,30.0600,-84.2910,28.22,11111222 
COMPS,ioos:station:USF.COMPS:SHP:1,2019-06-07T13:54:00,30.0600,-84.2910,28.36,11111222 
COMPS,ioos:station:USF.COMPS:SHP:1,2019-06-07T14:54:00,30.0600,-84.2910,26.82,11111222 
COMPS,ioos:station:USF.COMPS:SHP:1,2019-06-07T15:54:00,30.0600,-84.2910,24.11,11111222 
COMPS,ioos:station:USF.COMPS:SHP:1,2019-06-07T16:54:00,30.0600,-84.2910,23.86,11111222 
COMPS,ioos:station:USF.COMPS:SHP:1,2019-06-07T17:54:00,30.0600,-84.2910,26.36,11111222 
COMPS,ioos:station:USF.COMPS:SHP:1,2019-06-07T18:54:00,30.0600,-84.2910,27.2,11111222 
COMPS,ioos:station:USF.COMPS:SHP:1,2019-06-07T19:54:00,30.0600,-84.2910,27.43,11111222 
COMPS,ioos:station:USF.COMPS:SHP:1,2019-06-07T20:54:00,30.0600,-84.2910,28.27,11111222 
COMPS,ioos:station:USF.COMPS:SHP:1,2019-06-07T21:54:00,30.0600,-84.2910,27.96,11111222 
COMPS,ioos:station:USF.COMPS:SHP:1,2019-06-07T22:54:00,30.0600,-84.2910,27.91,11111222 
COMPS,ioos:station:USF.COMPS:SHP:1,2019-06-07T23:54:00,30.0600,-84.2910,24.84,11111222 
COMPS,ioos:station:USF.COMPS:SHP:1,2019-06-08T00:54:00,30.0600,-84.2910,25.79,11111222 
COMPS,ioos:station:USF.COMPS:SHP:1,2019-06-08T01:54:00,30.0600,-84.2910,26.55,11111222 
COMPS,ioos:station:USF.COMPS:SHP:1,2019-06-08T02:54:00,30.0600,-84.2910,27.59,11111222 
COMPS,ioos:station:USF.COMPS:SHP:1,2019-06-08T03:54:00,30.0600,-84.2910,27.32,11111222 
COMPS,ioos:station:USF.COMPS:SHP:1,2019-06-08T04:54:00,30.0600,-84.2910,27.33,11111222 
COMPS,ioos:station:USF.COMPS:SHP:1,2019-06-08T05:54:00,30.0600,-84.2910,27.42,11111222 
COMPS,ioos:station:USF.COMPS:SHP:1,2019-06-08T06:54:00,30.0600,-84.2910,27.32,11111222 
COMPS,ioos:station:USF.COMPS:SHP:1,2019-06-08T07:54:00,30.0600,-84.2910,26.96,11111222 
COMPS,ioos:station:USF.COMPS:SHP:1,2019-06-08T08:54:00,30.0600,-84.2910,27.15,11111222 
COMPS,ioos:station:USF.COMPS:SHP:1,2019-06-08T09:54:00,30.0600,-84.2910,26.12,11111222 
COMPS,ioos:station:USF.COMPS:SHP:1,2019-06-08T10:54:00,30.0600,-84.2910,26.3,11111222 
COMPS,ioos:station:USF.COMPS:SHP:1,2019-06-08T11:54:00,30.0600,-84.2910,26.93,11111222 
COMPS,ioos:station:USF.COMPS:SHP:1,2019-06-08T12:54:00,30.0600,-84.2910,26.91,11111222 
COMPS,ioos:station:USF.COMPS:SHP:1,2019-06-08T13:54:00,30.0600,-84.2910,27.38,11111222 
COMPS,ioos:station:USF.COMPS:SHP:1,2019-06-08T14:54:00,30.0600,-84.2910,27.61,11111222 
COMPS,ioos:station:USF.COMPS:SHP:1,2019-06-08T15:54:00,30.0600,-84.2910,27.94,11111222 
COMPS,ioos:station:USF.COMPS:SHP:1,2019-06-08T16:54:00,30.0600,-84.2910,27.4,11111222 
COMPS,ioos:station:USF.COMPS:SHP:1,2019-06-08T17:54:00,30.0600,-84.2910,27.47,11111222 
COMPS,ioos:station:USF.COMPS:SHP:1,2019-06-08T23:54:00,30.0600,-84.2910,24.68,11111222 
COMPS,ioos:station:USF.COMPS:SHP:1,2019-06-09T00:54:00,30.0600,-84.2910,26.32,11111222 
COMPS,ioos:station:USF.COMPS:SHP:1,2019-06-09T01:54:00,30.0600,-84.2910,26.49,11111222 
COMPS,ioos:station:USF.COMPS:SHP:1,2019-06-09T02:54:00,30.0600,-84.2910,26.44,11111222 
COMPS,ioos:station:USF.COMPS:SHP:1,2019-06-09T03:54:00,30.0600,-84.2910,26.44,11111222 
COMPS,ioos:station:USF.COMPS:SHP:1,2019-06-09T04:54:00,30.0600,-84.2910,26.52,11111222 
COMPS,ioos:station:USF.COMPS:SHP:1,2019-06-09T05:54:00,30.0600,-84.2910,26.82,11111222 
COMPS,ioos:station:USF.COMPS:SHP:1,2019-06-09T06:54:00,30.0600,-84.2910,26.67,11111222 
COMPS,ioos:station:USF.COMPS:SHP:1,2019-06-09T07:54:00,30.0600,-84.2910,26.8,11111222 
COMPS,ioos:station:USF.COMPS:SHP:1,2019-06-09T08:54:00,30.0600,-84.2910,26.78,11111222 
COMPS,ioos:station:USF.COMPS:SHP:1,2019-06-09T09:54:00,30.0600,-84.2910,27.07,11111222 
COMPS,ioos:station:USF.COMPS:SHP:1,2019-06-09T10:54:00,30.0600,-84.2910,27.07,11111222 
COMPS,ioos:station:USF.COMPS:SHP:1,2019-06-09T11:54:00,30.0600,-84.2910,27.19,11111222 
COMPS,ioos:station:USF.COMPS:SHP:1,2019-06-09T12:54:00,30.0600,-84.2910,26.85,11111222 
COMPS,ioos:station:USF.COMPS:SHP:1,2019-06-09T13:54:00,30.0600,-84.2910,26.81,11111222 
COMPS,ioos:station:USF.COMPS:SHP:1,2019-06-09T14:54:00,30.0600,-84.2910,27.8,11111222 
COMPS,ioos:station:USF.COMPS:SHP:1,2019-06-09T15:54:00,30.0600,-84.2910,28.05,11111222 
COMPS,ioos:station:USF.COMPS:SHP:1,2019-06-09T16:54:00,30.0600,-84.2910,27.94,11111222 
COMPS,ioos:station:USF.COMPS:SHP:1,2019-06-09T17:54:00,30.0600,-84.2910,28.72,11111222 
COMPS,ioos:station:USF.COMPS:SHP:1,2019-06-09T18:54:00,30.0600,-84.2910,28.77,11111222 
COMPS,ioos:station:USF.COMPS:SHP:1,2019-06-09T19:54:00,30.0600,-84.2910,28.71,11111222 
COMPS,ioos:station:USF.COMPS:SHP:1,2019-06-09T20:54:00,30.0600,-84.2910,28.83,11111222 
COMPS,ioos:station:USF.COMPS:SHP:1,2019-06-09T21:54:00,30.0600,-84.2910,28.47,11111222 
COMPS,ioos:station:USF.COMPS:SHP:1,2019-06-09T22:54:00,30.0600,-84.2910,28.19,11111222 
COMPS,ioos:station:USF.COMPS:SHP:1,2019-06-09T23:54:00,30.0600,-84.2910,27.84,11111222 
COMPS,ioos:station:USF.COMPS:SHP:1,2019-06-10T00:54:00,30.0600,-84.2910,27.56,11111222 
COMPS,ioos:station:USF.COMPS:SHP:1,2019-06-10T01:54:00,30.0600,-84.2910,27.32,11111222 
COMPS,ioos:station:USF.COMPS:SHP:1,2019-06-10T02:54:00,30.0600,-84.2910,27.42,11111222 
COMPS,ioos:station:USF.COMPS:SHP:1,2019-06-10T03:54:00,30.0600,-84.2910,27.22,11111222 
COMPS,ioos:station:USF.COMPS:SHP:1,2019-06-10T04:54:00,30.0600,-84.2910,27.17,11111222 
COMPS,ioos:station:USF.COMPS:SHP:1,2019-06-10T05:54:00,30.0600,-84.2910,27.05,11111222 
COMPS,ioos:station:USF.COMPS:SHP:1,2019-06-10T06:54:00,30.0600,-84.2910,26.85,11111222 
COMPS,ioos:station:USF.COMPS:SHP:1,2019-06-10T07:54:00,30.0600,-84.2910,25.4,11111222 
COMPS,ioos:station:USF.COMPS:SHP:1,2019-06-10T08:54:00,30.0600,-84.2910,26.18,11111222 
COMPS,ioos:station:USF.COMPS:SHP:1,2019-06-10T09:54:00,30.0600,-84.2910,26.59,11111222 
COMPS,ioos:station:USF.COMPS:SHP:1,2019-06-10T10:54:00,30.0600,-84.2910,26.83,11111222 
COMPS,ioos:station:USF.COMPS:SHP:1,2019-06-10T11:54:00,30.0600,-84.2910,26.76,11111222 
COMPS,ioos:station:USF.COMPS:SHP:1,2019-06-10T12:54:00,30.0600,-84.2910,27.04,11111222 
COMPS,ioos:station:USF.COMPS:SHP:1,2019-06-10T13:54:00,30.0600,-84.2910,28.02,11111222 
COMPS,ioos:station:USF.COMPS:SHP:1,2019-06-10T14:54:00,30.0600,-84.2910,28.35,11111222 
COMPS,ioos:station:USF.COMPS:SHP:1,2019-06-10T15:54:00,30.0600,-84.2910,28.79,11111222 
COMPS,ioos:station:USF.COMPS:SHP:1,2019-06-10T16:54:00,30.0600,-84.2910,29.03,11111222 
COMPS,ioos:station:USF.COMPS:SHP:1,2019-06-10T17:54:00,30.0600,-84.2910,28.65,11111222 
COMPS,ioos:station:USF.COMPS:SHP:1,2019-06-10T18:54:00,30.0600,-84.2910,29.03,11111222 
COMPS,ioos:station:USF.COMPS:SHP:1,2019-06-10T19:54:00,30.0600,-84.2910,28.9,11111222 
COMPS,ioos:station:USF.COMPS:SHP:1,2019-06-10T20:54:00,30.0600,-84.2910,25.65,11111222 
COMPS,ioos:station:USF.COMPS:SHP:1,2019-06-10T21:54:00,30.0600,-84.2910,27.23,11111222 
COMPS,ioos:station:USF.COMPS:SHP:1,2019-06-10T22:54:00,30.0600,-84.2910,28.29,11111222 
COMPS,ioos:station:USF.COMPS:SHP:1,2019-06-10T23:54:00,30.0600,-84.2910,28.07,11111222 
COMPS,ioos:station:USF.COMPS:SHP:1,2019-06-11T00:54:00,30.0600,-84.2910,27.63,11111222 
COMPS,ioos:station:USF.COMPS:SHP:1,2019-06-11T01:54:00,30.0600,-84.2910,27.37,11111222 
COMPS,ioos:station:USF.COMPS:SHP:1,2019-06-11T02:54:00,30.0600,-84.2910,27.02,11111222 
COMPS,ioos:station:USF.COMPS:SHP:1,2019-06-11T03:54:00,30.0600,-84.2910,26.08,11111222 
COMPS,ioos:station:USF.COMPS:SHP:1,2019-06-11T04:54:00,30.0600,-84.2910,26.52,11111222 
COMPS,ioos:station:USF.COMPS:SHP:1,2019-06-11T05:54:00,30.0600,-84.2910,25.8,11111222 
COMPS,ioos:station:USF.COMPS:SHP:1,2019-06-11T06:54:00,30.0600,-84.2910,26.51,11111222 
COMPS,ioos:station:USF.COMPS:SHP:1,2019-06-11T07:54:00,30.0600,-84.2910,26.1,11111222 
COMPS,ioos:station:USF.COMPS:SHP:1,2019-06-11T08:54:00,30.0600,-84.2910,25.03,11111222 
COMPS,ioos:station:USF.COMPS:SHP:1,2019-06-11T09:54:00,30.0600,-84.2910,24.99,11111222 
COMPS,ioos:station:USF.COMPS:SHP:1,2019-06-11T10:54:00,30.0600,-84.2910,23.57,11111222 
COMPS,ioos:station:USF.COMPS:SHP:1,2019-06-11T11:54:00,30.0600,-84.2910,23.87,11111222 
COMPS,ioos:station:USF.COMPS:SHP:1,2019-06-11T12:54:00,30.0600,-84.2910,25.59,11111222 
COMPS,ioos:station:USF.COMPS:SHP:1,2019-06-11T13:54:00,30.0600,-84.2910,27.09,11111222 
COMPS,ioos:station:USF.COMPS:SHP:1,2019-06-11T14:54:00,30.0600,-84.2910,27.65,11111222 
COMPS,ioos:station:USF.COMPS:SHP:1,2019-06-11T15:54:00,30.0600,-84.2910,28.26,11111222 
COMPS,ioos:station:USF.COMPS:SHP:1,2019-06-11T18:54:00,30.0600,-84.2910,28.05,11111222 
COMPS,ioos:station:USF.COMPS:SHP:1,2019-06-11T19:54:00,30.0600,-84.2910,28.99,11111222 
COMPS,ioos:station:USF.COMPS:SHP:1,2019-06-11T20:54:00,30.0600,-84.2910,28.56,11111222 
COMPS,ioos:station:USF.COMPS:SHP:1,2019-06-11T21:54:00,30.0600,-84.2910,28.47,11111222 
COMPS,ioos:station:USF.COMPS:SHP:1,2019-06-11T22:54:00,30.0600,-84.2910,28.15,11111222 
COMPS,ioos:station:USF.COMPS:SHP:1,2019-06-11T23:54:00,30.0600,-84.2910,27.19,11111222 
COMPS,ioos:station:USF.COMPS:SHP:1,2019-06-12T00:54:00,30.0600,-84.2910,27.02,11111222 
COMPS,ioos:station:USF.COMPS:SHP:1,2019-06-12T01:54:00,30.0600,-84.2910,27.14,11111222 
COMPS,ioos:station:USF.COMPS:SHP:1,2019-06-12T02:54:00,30.0600,-84.2910,26.74,11111222 
COMPS,ioos:station:USF.COMPS:SHP:1,2019-06-12T03:54:00,30.0600,-84.2910,26.43,11111222 
COMPS,ioos:station:USF.COMPS:SHP:1,2019-06-12T04:54:00,30.0600,-84.2910,26.82,11111222 
COMPS,ioos:station:USF.COMPS:SHP:1,2019-06-12T05:54:00,30.0600,-84.2910,27.05,11111222 
COMPS,ioos:station:USF.COMPS:SHP:1,2019-06-12T06:54:00,30.0600,-84.2910,27.07,11111222 
COMPS,ioos:station:USF.COMPS:SHP:1,2019-06-12T07:54:00,30.0600,-84.2910,25.0,11111222 
COMPS,ioos:station:USF.COMPS:SHP:1,2019-06-12T08:54:00,30.0600,-84.2910,25.68,11111222 
COMPS,ioos:station:USF.COMPS:SHP:1,2019-06-12T09:54:00,30.0600,-84.2910,25.14,11111222 
COMPS,ioos:station:USF.COMPS:SHP:1,2019-06-12T10:54:00,30.0600,-84.2910,25.22,11111222 
COMPS,ioos:station:USF.COMPS:SHP:1,2019-06-12T11:54:00,30.0600,-84.2910,25.15,11111222 
COMPS,ioos:station:USF.COMPS:SHP:1,2019-06-12T12:54:00,30.0600,-84.2910,25.19,11111222 
COMPS,ioos:station:USF.COMPS:SHP:1,2019-06-12T13:54:00,30.0600,-84.2910,26.17,11111222 
COMPS,ioos:station:USF.COMPS:SHP:1,2019-06-12T14:54:00,30.0600,-84.2910,27.15,11111222 